Location: Fuglau
(48.6333°N, 15.5500°E)
Time: 04:31:19
(UTC+00:00)

SL-24 DEB - Pass Details

Date: 27 February 2020
Orbit: 665 x 701 km, 92.0° (Epoch: 29 March)

Event Time Altitude Azimuth Distance (km) Brightness Sun altitude
Rises 18:17:46 0° 165° (SSE) 3,042 7.4 -17.3°
Reaches altitude 10° 18:20:02 10° 163° (SSE) 2,126 6.6 -17.7°
Maximum altitude 18:24:40 66° 81° (E) 745 4.2 -18.5°
Drops below altitude 10° 18:29:17 10° 1° (N) 2,120 6.9 -19.2°
Sets 18:31:33 0° 358° (N) 3,035 7.8 -19.6°
